Theta_e
328 327 327 327 327 327 326 326 325 326 326 326 327 329 327 320 317 320 324 323 334 335 333 332 333 333 334 334 336 339 342 342 341
325 325 326 326 326 326 325 324 324 324 324 325 327 328 326 312 316 320 322 323 332 333 332 332 332 332 332 333 332 333 336 338 339
323 323 324 324 323 323 324 324 324 324 324 325 325 325 326 316 315 319 320 333 331 331 331 331 331 331 331 331 331 332 332 333 335
321 322 322 323 323 323 323 323 323 323 323 323 324 324 323 314 318 324 322 334 331 330 330 331 332 331 330 330 330 331 331 332 332
319 318 320 321 322 322 323 322 321 321 322 322 323 320 321 316 320 322 324 331 331 334 335 335 336 335 332 329 328 329 330 331 331
310 317 320 321 321 322 322 322 321 318 315 318 318 313 311 315 319 322 333 334 335 333 333 332 334 335 334 334 333 334 334 334 334
310 313 317 318 317 318 319 319 316 310 303 303 308 303 310 317 320 323 331 330 332 332 331 330 330 333 333 333 333 333 333 332 332
303 303 303 303 309 304 306 304 304 303 303 303 302 303 313 317 320 326 328 328 328 330 329 328 329 329 331 331 331 330 330 330 331
301 301 302 302 302 302 302 301 302 303 303 303 306 304 312 315 317 321 326 323 325 325 326 325 325 326 327 330 329 327 326 327 327
301 300 301 301 302 301 301 301 302 302 304 306 309 307 309 314 315 314 322 321 321 322 323 323 324 325 324 325 325 324 324 324 324
301 301 301 301 301 301 301 301 301 301 303 307 309 308 309 314 312 311 313 319 319 319 320 321 322 322 323 323 322 321 321 322 322
301 300 300 300 301 301 301 302 302 301 303 305 312 311 310 309 308 308 307 308 314 316 318 319 319 320 320 321 320 319 320 319 320
300 300 299 300 300 300 299 300 300 299 300 301 308 310 308 307 306 306 306 305 305 308 317 317 317 317 317 319 318 319 318 317 318
300 299 299 299 299 298 299 299 299 298 298 302 308 308 307 307 308 305 305 305 304 303 313 315 314 314 314 315 316 316 315 315 317
300 299 299 299 298 297 298 298 299 298 297 303 303 306 307 307 306 306 307 305 303 303 307 306 307 311 312 312 313 313 312 313 316
299 298 298 298 297 296 297 298 298 298 297 297 298 301 306 307 307 307 306 304 301 302 305 305 303 302 309 309 309 309 310 311 314
299 297 297 296 296 295 295 296 296 296 297 295 295 293 297 299 301 302 304 301 300 300 301 303 303 300 300 302 306 307 308 310 312
299 297 297 296 296 295 294 295 295 293 295 296 294 289 289 292 297 299 297 296 296 296 297 299 301 301 299 302 301 305 306 308 310
299 298 297 296 296 295 295 296 294 293 292 294 297 294 295 290 290 295 296 295 295 295 295 296 296 298 299 301 303 305 305 307 308
299 298 297 295 295 294 294 293 293 294 292 292 293 292 292 292 292 290 291 293 293 294 294 294 294 297 298 298 299 304 305 307 307
Wind_Speed
12 11 11 12 12 12 12 12 11 11 11 12 12 12 15 10 6 6 7 2 10 11 10 10 10 10 11 11 11 12 12 9 8
12 11 11 12 12 12 12 11 11 12 12 12 12 12 12 6 5 6 6 6 10 10 9 9 9 9 10 10 10 10 10 10 10
11 11 11 12 12 12 12 12 11 11 11 12 12 12 7 5 5 5 5 7 9 8 9 8 9 8 7 8 8 8 8 9 9
10 11 11 11 12 11 12 12 12 11 10 11 12 12 10 6 3 2 2 5 8 9 7 6 6 6 7 7 7 6 7 7 8
8 7 8 10 10 9 10 9 11 10 12 11 13 10 10 5 3 3 3 8 7 8 10 13 12 10 7 6 5 6 3 7 8
4 6 8 9 12 11 12 12 11 10 10 10 11 8 3 3 2 2 7 9 13 11 13 12 14 14 11 10 9 10 11 10 9
5 6 10 11 11 11 12 12 12 8 4 4 8 3 3 3 3 3 10 11 12 13 12 12 11 13 12 12 13 12 12 10 11
4 3 3 4 8 4 6 6 4 6 4 4 4 4 4 2 2 5 11 10 10 12 12 12 13 11 12 12 14 15 14 12 13
4 3 4 4 3 5 4 4 5 6 5 4 4 5 3 2 2 4 10 11 11 11 11 11 10 10 10 12 13 13 12 13 12
3 3 4 4 3 3 4 4 4 5 6 5 4 5 4 3 2 2 9 10 10 11 11 11 10 10 9 9 12 11 11 11 11
3 3 4 4 3 3 3 3 3 4 4 5 4 3 3 3 2 2 4 9 9 10 10 10 10 10 9 9 9 10 11 12 11
4 3 3 3 3 5 4 4 4 5 4 5 4 4 4 3 3 4 3 4 8 10 11 10 9 9 9 9 8 10 11 12 12
4 3 3 3 4 4 3 4 4 4 4 2 3 2 3 3 2 3 3 3 3 5 9 8 7 8 8 9 9 10 12 12 12
4 3 3 3 4 4 3 3 3 3 4 3 1 1 1 2 2 3 2 3 2 2 6 6 6 7 7 8 8 10 11 12 12
4 3 4 3 4 4 3 4 4 2 3 3 2 2 2 2 2 2 2 2 2 1 1 2 3 5 6 7 8 10 12 12 12
5 3 3 3 4 3 4 2 4 4 5 3 3 3 2 3 3 3 2 3 4 4 3 2 2 2 4 6 7 10 13 13 13
4 4 3 4 3 5 5 5 3 3 4 2 1 4 4 3 3 2 2 3 4 5 5 4 4 3 2 3 3 7 11 13 13
4 4 4 4 3 3 3 3 5 3 2 5 2 3 2 3 3 3 3 4 3 5 5 5 5 5 4 4 3 4 8 12 12
3 4 4 3 2 4 2 3 2 2 3 3 3 1 2 1 5 3 3 3 4 6 3 5 6 5 4 6 7 6 7 11 11
3 3 3 3 2 2 3 3 4 2 1 1 3 2 2 2 0 4 5 5 3 4 4 4 4 5 5 5 6 8 7 10 12
Wind_Direction
71 68 66 63 60 57 53 49 46 41 37 38 41 38 41 48 48 33 22 5 73 57 39 26 24 21 15 12 10 12 22 18 357
70 67 64 61 58 53 50 48 46 42 39 43 41 35 45 45 37 33 18 11 48 49 40 30 25 24 20 14 11 7 10 11 15
67 65 62 58 55 51 50 48 39 32 35 36 29 24 54 71 57 32 10 3 51 40 35 28 20 20 26 19 16 14 10 8 5
69 62 61 54 49 49 45 43 38 29 34 27 22 32 84 92 81 52 12 1 51 38 33 27 29 24 11 7 7 18 18 15 8
62 51 39 38 30 31 30 37 35 31 29 27 33 54 88 71 62 36 4 39 56 66 52 52 44 33 30 20 6 1 30 16 3
24 23 20 37 38 40 37 40 31 32 24 26 40 57 85 73 47 33 27 59 52 51 43 32 31 40 38 34 36 28 39 39 30
60 38 44 42 41 34 32 33 30 33 20 13 35 41 93 63 42 27 44 41 48 45 44 35 26 28 36 39 41 39 34 32 35
44 40 26 20 34 25 19 16 18 18 17 16 37 52 87 65 46 45 54 46 39 42 38 35 23 19 31 43 40 27 15 21 27
42 43 26 30 18 24 20 14 9 21 13 21 28 62 107 89 58 48 61 56 50 45 36 30 23 20 14 32 42 32 10 9 2
56 38 33 24 14 25 21 19 24 19 9 25 18 72 119 104 75 36 70 54 46 39 33 28 21 12 8 22 31 21 4 6 5
72 47 30 22 13 15 40 36 26 22 21 20 23 63 121 119 108 74 34 55 43 27 20 20 20 16 10 19 16 16 3 359 358
87 64 35 1 7 25 25 25 23 27 12 29 47 63 77 64 55 73 59 47 32 26 16 12 19 18 19 16 13 8 4 357 352
78 64 35 1 28 29 31 22 18 17 25 360 352 31 70 78 89 70 59 39 35 16 24 20 28 21 17 14 10 10 1 355 348
86 64 27 28 36 29 18 29 41 9 354 331 52 350 26 14 33 47 48 35 35 18 17 42 28 12 5 8 8 4 359 353 347
86 65 43 41 44 25 22 37 18 20 333 333 1 325 331 340 352 346 350 329 359 23 36 14 341 354 0 358 359 357 356 350 346
82 74 55 41 54 33 21 18 24 1 349 17 353 341 315 311 310 310 300 328 358 340 334 313 317 318 348 351 355 354 353 348 343
96 89 68 50 54 34 31 34 3 2 15 65 85 1 333 349 357 353 345 356 349 354 324 310 286 282 285 286 342 347 350 345 341
102 89 79 60 62 49 38 33 45 3 333 38 111 10 303 324 327 359 1 24 8 340 335 332 322 278 265 277 292 314 338 340 337
95 84 79 72 67 54 26 42 51 59 14 334 25 48 175 339 327 328 318 329 340 335 329 311 302 288 254 251 240 263 317 336 335
104 96 76 65 58 54 49 31 29 47 67 28 342 351 358 22 212 294 315 332 325 304 302 306 317 327 294 256 249 258 300 328 332